Location: *
(48.8667°N, 2.3331°E)
Time: 01:24:22
(UTC+00:00)

Cosmos 2278 - Pass Details

Date: 09 April 2020
Orbit: 840 x 853 km, 71.1° (Epoch: 03 June)

Event Time Altitude Azimuth Distance (km) Brightness Sun altitude
Rises 22:06:33 0° 329° (NNW) 3,406 8.1 -28.6°
Reaches altitude 10° 22:09:02 10° 326° (NW) 2,468 7.1 -28.8°
Enters shadow 22:14:18 58° 262° (W) 979 4.0 -29.2°
